Location: *
(42.0175°N, 9.4056°E)
Time: 19:00:07
(UTC+00:00)

Cosmos 1536 - Pass Details

Date: 25 August 2019
Orbit: 540 x 559 km, 82.5° (Epoch: 15 September)

Event Time Altitude Azimuth Distance (km) Brightness Sun altitude
Exits shadow 19:23:34 16° 156° (SSE) 1,486 4.6 -13.8°
Maximum altitude 19:26:25 40° 93° (E) 828 3.3 -14.3°
Drops below altitude 10° 19:30:15 10° 23° (NNE) 1,852 5.6 -14.9°
Sets 19:32:31 0° 16° (NNE) 2,750 6.6 -15.3°
